QPF
0.00 0.00 0.00 0.00 0.00 0.00 0.00 0.00 0.00 0.00 0.00 0.00 0.00 0.00 0.00 0.00 0.00 0.00 0.00 0.00 0.00 0.00 0.00 0.00 0.00 0.00 0.00 0.00 0.00 0.00 0.00 0.00 0.00 0.00 0.00 0.00 0.00 0.00 0.00 0.00 0.00 0.00 0.00 0.00 0.00
0.00 0.00 0.00 0.00 0.00 0.00 0.00 0.00 0.00 0.00 0.00 0.00 0.00 0.00 0.00 0.00 0.00 0.00 0.00 0.00 0.00 0.00 0.00 0.00 0.00 0.00 0.00 0.00 0.00 0.00 0.00 0.00 0.00 0.00 0.00 0.00 0.00 0.00 0.00 0.00 0.00 0.00 0.00 0.00 0.00
0.00 0.00 0.00 0.00 0.00 0.00 0.00 0.00 0.00 0.00 0.00 0.00 0.00 0.00 0.00 0.00 0.00 0.00 0.00 0.00 0.00 0.00 0.00 0.00 0.00 0.00 0.00 0.00 0.00 0.00 0.00 0.00 0.00 0.00 0.00 0.00 0.00 0.00 0.00 0.00 0.00 0.00 0.00 0.00 0.00
0.00 0.00 0.00 0.00 0.00 0.00 0.00 0.00 0.00 0.00 0.00 0.00 0.00 0.00 0.00 0.00 0.00 0.00 0.00 0.00 0.00 0.00 0.00 0.00 0.00 0.00 0.00 0.00 0.00 0.00 0.00 0.00 0.00 0.00 0.00 0.00 0.00 0.00 0.00 0.00 0.00 0.00 0.00 0.00 0.00
0.00 0.00 0.00 0.00 0.00 0.00 0.00 0.00 0.00 0.00 0.00 0.00 0.00 0.00 0.00 0.00 0.00 0.00 0.00 0.00 0.00 0.00 0.00 0.00 0.00 0.00 0.00 0.00 0.00 0.00 0.00 0.00 0.00 0.00 0.00 0.00 0.00 0.00 0.00 0.00 0.00 0.00 0.00 0.00 0.00
0.00 0.00 0.00 0.00 0.00 0.00 0.00 0.00 0.00 0.00 0.00 0.00 0.00 0.00 0.00 0.00 0.00 0.00 0.00 0.00 0.00 0.00 0.00 0.00 0.00 0.00 0.00 0.00 0.00 0.00 0.00 0.00 0.00 0.00 0.00 0.00 0.00 0.00 0.00 0.00 0.00 0.00 0.00 0.00 0.00
0.00 0.00 0.00 0.00 0.00 0.00 0.00 0.00 0.00 0.00 0.00 0.00 0.00 0.00 0.00 0.00 0.00 0.00 0.00 0.00 0.00 0.00 0.00 0.00 0.00 0.00 0.00 0.00 0.00 0.00 0.00 0.00 0.00 0.00 0.00 0.00 0.00 0.00 0.01 0.00 0.00 0.00 0.00 0.00 0.00
0.00 0.00 0.00 0.00 0.00 0.00 0.00 0.00 0.00 0.00 0.00 0.00 0.00 0.00 0.00 0.00 0.00 0.00 0.00 0.00 0.00 0.00 0.00 0.00 0.00 0.00 0.00 0.00 0.00 0.00 0.00 0.00 0.00 0.00 0.00 0.00 0.00 0.00 0.01 0.00 0.00 0.00 0.00 0.00 0.00
0.00 0.00 0.00 0.00 0.00 0.00 0.00 0.00 0.00 0.00 0.00 0.00 0.00 0.00 0.00 0.00 0.00 0.00 0.00 0.00 0.00 0.00 0.00 0.00 0.00 0.00 0.00 0.00 0.00 0.00 0.00 0.00 0.00 0.00 0.00 0.00 0.00 0.00 0.00 0.00 0.00 0.00 0.00 0.00 0.00
0.00 0.00 0.00 0.00 0.00 0.00 0.00 0.00 0.00 0.00 0.00 0.00 0.00 0.00 0.00 0.00 0.00 0.00 0.00 0.00 0.00 0.00 0.00 0.00 0.00 0.00 0.00 0.00 0.00 0.00 0.00 0.00 0.00 0.00 0.00 0.00 0.00 0.00 0.00 0.00 0.00 0.00 0.00 0.00 0.00
0.00 0.00 0.00 0.00 0.00 0.00 0.00 0.00 0.00 0.00 0.00 0.00 0.00 0.00 0.00 0.00 0.00 0.00 0.00 0.00 0.00 0.00 0.00 0.00 0.00 0.00 0.00 0.00 0.00 0.00 0.00 0.00 0.00 0.00 0.00 0.00 0.00 0.00 0.00 0.00 0.00 0.00 0.00 0.00 0.00
0.00 0.00 0.00 0.00 0.00 0.00 0.00 0.00 0.00 0.00 0.00 0.00 0.00 0.00 0.00 0.00 0.00 0.00 0.00 0.00 0.00 0.00 0.00 0.00 0.00 0.00 0.00 0.00 0.00 0.00 0.00 0.00 0.00 0.00 0.00 0.00 0.00 0.00 0.00 0.00 0.00 0.00 0.00 0.00 0.00
0.00 0.00 0.00 0.00 0.00 0.00 0.00 0.00 0.00 0.00 0.00 0.00 0.00 0.00 0.00 0.00 0.00 0.00 0.00 0.00 0.00 0.00 0.00 0.00 0.00 0.00 0.00 0.00 0.00 0.00 0.00 0.00 0.00 0.00 0.00 0.00 0.00 0.00 0.00 0.00 0.00 0.00 0.00 0.00 0.00
0.00 0.00 0.00 0.00 0.00 0.00 0.00 0.00 0.00 0.00 0.00 0.00 0.00 0.00 0.00 0.00 0.00 0.00 0.00 0.00 0.00 0.00 0.00 0.00 0.00 0.00 0.00 0.00 0.00 0.00 0.00 0.00 0.00 0.00 0.00 0.00 0.00 0.00 0.00 0.00 0.00 0.00 0.00 0.00 0.00
0.00 0.00 0.00 0.00 0.00 0.00 0.00 0.00 0.00 0.00 0.00 0.00 0.00 0.00 0.00 0.00 0.00 0.00 0.00 0.00 0.00 0.00 0.00 0.00 0.00 0.00 0.00 0.00 0.00 0.00 0.00 0.00 0.00 0.00 0.00 0.00 0.00 0.00 0.00 0.00 0.00 0.00 0.00 0.00 0.00
0.00 0.00 0.00 0.00 0.00 0.00 0.00 0.00 0.00 0.00 0.00 0.00 0.00 0.00 0.00 0.00 0.00 0.00 0.00 0.00 0.00 0.00 0.00 0.00 0.00 0.00 0.00 0.00 0.00 0.00 0.00 0.00 0.00 0.00 0.00 0.00 0.00 0.00 0.00 0.00 0.00 0.00 0.00 0.00 0.00
0.00 0.00 0.00 0.00 0.00 0.00 0.00 0.00 0.00 0.00 0.00 0.00 0.00 0.00 0.00 0.00 0.00 0.00 0.00 0.00 0.00 0.00 0.00 0.00 0.00 0.00 0.00 0.00 0.00 0.00 0.00 0.00 0.00 0.00 0.00 0.00 0.00 0.00 0.00 0.00 0.00 0.00 0.00 0.00 0.00
0.00 0.00 0.00 0.00 0.00 0.00 0.00 0.00 0.00 0.00 0.00 0.00 0.00 0.00 0.00 0.00 0.00 0.00 0.00 0.00 0.00 0.00 0.00 0.00 0.00 0.00 0.00 0.00 0.00 0.00 0.00 0.00 0.00 0.00 0.00 0.00 0.00 0.00 0.00 0.00 0.00 0.00 0.00 0.00 0.00
0.00 0.00 0.00 0.00 0.00 0.00 0.00 0.00 0.00 0.00 0.00 0.00 0.00 0.00 0.00 0.00 0.00 0.00 0.00 0.00 0.00 0.00 0.00 0.00 0.00 0.00 0.00 0.00 0.00 0.00 0.00 0.00 0.00 0.00 0.00 0.00 0.00 0.00 0.00 0.00 0.00 0.00 0.00 0.00 0.00
0.00 0.00 0.00 0.00 0.00 0.00 0.00 0.00 0.00 0.00 0.00 0.00 0.00 0.00 0.00 0.00 0.00 0.00 0.00 0.00 0.00 0.00 0.00 0.00 0.00 0.00 0.00 0.00 0.00 0.00 0.00 0.00 0.00 0.00 0.00 0.00 0.00 0.00 0.00 0.00 0.00 0.00 0.00 0.00 0.00
0.00 0.00 0.00 0.00 0.00 0.00 0.00 0.00 0.00 0.00 0.00 0.00 0.00 0.00 0.00 0.00 0.00 0.00 0.00 0.00 0.00 0.00 0.00 0.00 0.00 0.00 0.00 0.00 0.00 0.00 0.00 0.00 0.00 0.00 0.00 0.00 0.00 0.00 0.00 0.00 0.00 0.00 0.00 0.00 0.00
0.00 0.00 0.00 0.00 0.00 0.00 0.00 0.00 0.00 0.00 0.00 0.00 0.00 0.00 0.00 0.00 0.00 0.00 0.00 0.00 0.00 0.00 0.00 0.00 0.00 0.00 0.00 0.00 0.00 0.00 0.00 0.00 0.00 0.00 0.00 0.00 0.00 0.00 0.00 0.00 0.00 0.00 0.00 0.00 0.00
0.00 0.00 0.00 0.00 0.00 0.00 0.00 0.00 0.00 0.00 0.00 0.00 0.00 0.00 0.00 0.00 0.00 0.00 0.00 0.00 0.00 0.00 0.00 0.00 0.00 0.00 0.00 0.00 0.00 0.00 0.00 0.00 0.00 0.00 0.00 0.00 0.00 0.00 0.00 0.00 0.00 0.00 0.00 0.00 0.00
0.00 0.00 0.00 0.00 0.00 0.00 0.00 0.00 0.00 0.00 0.00 0.00 0.00 0.00 0.00 0.00 0.00 0.00 0.00 0.00 0.00 0.00 0.00 0.00 0.00 0.00 0.00 0.00 0.00 0.00 0.00 0.00 0.00 0.00 0.00 0.00 0.00 0.00 0.00 0.00 0.00 0.00 0.00 0.00 0.00
0.00 0.00 0.00 0.00 0.00 0.00 0.00 0.00 0.00 0.00 0.00 0.00 0.00 0.00 0.00 0.00 0.00 0.00 0.00 0.00 0.00 0.00 0.00 0.00 0.00 0.00 0.00 0.00 0.00 0.00 0.00 0.00 0.00 0.00 0.00 0.00 0.00 0.00 0.00 0.00 0.00 0.00 0.00 0.00 0.00
0.00 0.00 0.00 0.00 0.00 0.00 0.00 0.00 0.00 0.00 0.00 0.00 0.00 0.00 0.00 0.00 0.00 0.00 0.00 0.00 0.00 0.00 0.00 0.00 0.00 0.00 0.00 0.00 0.00 0.00 0.00 0.00 0.00 0.00 0.00 0.00 0.00 0.00 0.00 0.00 0.00 0.00 0.00 0.00 0.00
0.00 0.00 0.00 0.00 0.00 0.00 0.00 0.00 0.00 0.00 0.00 0.00 0.00 0.00 0.00 0.00 0.00 0.00 0.00 0.00 0.00 0.00 0.00 0.00 0.00 0.00 0.00 0.00 0.00 0.00 0.00 0.00 0.00 0.00 0.00 0.00 0.00 0.00 0.00 0.00 0.00 0.00 0.00 0.00 0.00
MSLP
1016.52 1016.12 1015.70 1015.29 1014.81 1014.36 1013.87 1013.43 1012.90 1012.36 1011.86 1011.41 1010.95 1010.53 1010.21 1009.76 1008.94 1008.23 1007.25 1004.88 1005.22 1005.74 1006.28 1007.31 1007.66 1007.66 1007.68 1007.93 1007.86 1008.05 1008.37 1008.34 1007.27 1006.72 1006.16 1005.81 1006.14 1006.72 1006.84 1007.49 1008.01 1008.50 1009.11 1010.10 1011.49
1016.50 1016.05 1015.64 1015.22 1014.76 1014.33 1013.81 1013.30 1012.75 1012.23 1011.70 1011.23 1010.82 1010.39 1010.17 1009.92 1009.37 1007.70 1004.56 1004.26 1005.13 1005.51 1006.42 1007.13 1007.76 1007.90 1008.12 1008.09 1007.88 1007.88 1007.87 1007.05 1006.02 1005.61 1005.65 1005.61 1005.77 1006.47 1007.21 1007.91 1008.39 1009.33 1009.92 1010.67 1011.61
1016.48 1016.03 1015.56 1015.10 1014.59 1014.10 1013.64 1013.15 1012.51 1012.02 1011.59 1011.11 1010.71 1010.19 1009.95 1009.91 1009.11 1005.62 1004.15 1004.43 1005.07 1005.40 1006.18 1007.03 1007.52 1007.89 1008.23 1007.90 1007.69 1007.57 1007.12 1006.15 1005.45 1005.18 1004.98 1005.49 1005.98 1006.25 1007.05 1007.92 1008.13 1009.18 1010.31 1011.08 1011.81
1016.33 1015.90 1015.47 1015.02 1014.46 1013.94 1013.43 1012.97 1012.36 1011.79 1011.33 1010.83 1010.45 1009.91 1009.51 1009.49 1007.87 1004.97 1004.43 1004.65 1005.29 1005.62 1006.37 1007.05 1007.49 1007.72 1007.87 1007.42 1006.94 1006.89 1006.23 1005.61 1004.98 1004.66 1004.95 1005.40 1005.93 1006.36 1006.82 1007.02 1007.45 1008.57 1009.72 1010.73 1011.71
1016.27 1015.82 1015.30 1014.79 1014.21 1013.64 1013.10 1012.52 1012.07 1011.50 1010.96 1010.49 1010.28 1009.81 1009.13 1008.54 1006.52 1005.08 1004.90 1005.34 1005.88 1006.07 1006.38 1006.84 1007.16 1007.11 1007.06 1006.47 1006.07 1006.11 1005.54 1005.10 1004.66 1004.52 1004.93 1005.39 1005.98 1006.44 1007.02 1007.20 1007.72 1008.92 1009.90 1010.78 1011.41
1016.23 1015.68 1015.07 1014.48 1013.85 1013.21 1012.55 1011.93 1011.48 1011.06 1010.59 1010.24 1010.13 1010.01 1009.39 1007.89 1005.49 1005.27 1005.45 1006.01 1006.17 1006.44 1006.50 1006.54 1006.13 1006.12 1006.38 1005.97 1005.55 1005.48 1005.62 1005.35 1004.80 1004.64 1005.01 1005.55 1006.24 1006.35 1007.09 1007.57 1008.46 1009.27 1010.07 1010.58 1011.16
1016.00 1015.48 1014.83 1014.19 1013.50 1012.75 1012.00 1011.29 1010.77 1010.36 1010.05 1009.88 1009.95 1009.87 1009.10 1006.38 1005.52 1005.70 1005.95 1006.09 1005.89 1005.95 1006.24 1006.10 1005.84 1006.50 1005.86 1005.70 1005.02 1005.42 1005.53 1004.80 1004.93 1005.02 1005.54 1005.45 1006.38 1006.99 1007.27 1007.84 1008.77 1009.40 1009.98 1010.35 1010.71
1015.78 1015.12 1014.43 1013.72 1012.91 1012.02 1011.29 1010.69 1010.06 1009.53 1009.26 1009.51 1009.76 1009.62 1008.00 1005.21 1005.35 1005.78 1005.86 1005.95 1005.71 1005.70 1005.75 1005.45 1005.59 1005.90 1005.80 1005.68 1005.61 1005.82 1005.66 1005.44 1005.10 1005.08 1005.46 1005.47 1006.38 1006.79 1007.26 1007.89 1008.96 1009.40 1009.92 1010.30 1010.14
1015.57 1014.87 1014.12 1013.28 1012.38 1011.32 1010.49 1009.88 1009.39 1009.00 1008.98 1009.41 1009.67 1009.19 1007.09 1005.01 1004.83 1004.15 1004.52 1005.03 1005.22 1005.54 1005.58 1005.35 1005.46 1005.86 1005.93 1006.32 1006.80 1006.87 1006.69 1006.24 1005.58 1005.18 1005.42 1005.59 1006.10 1006.25 1006.77 1007.56 1008.47 1009.15 1009.40 1009.72 1010.07
1015.44 1014.74 1013.87 1012.96 1012.06 1010.99 1009.89 1009.38 1009.28 1009.27 1009.50 1009.50 1009.07 1009.06 1006.39 1005.27 1004.62 1004.05 1004.13 1004.49 1004.68 1004.71 1005.03 1005.05 1005.54 1006.08 1006.76 1007.09 1007.59 1007.43 1007.00 1006.44 1006.04 1005.38 1005.82 1006.24 1006.23 1006.70 1006.96 1007.28 1007.81 1008.39 1009.01 1009.19 1009.39
1015.40 1014.65 1013.79 1012.82 1011.86 1010.94 1009.68 1009.31 1010.09 1009.73 1009.22 1008.48 1007.91 1007.21 1006.02 1004.96 1004.42 1003.97 1003.88 1004.27 1004.41 1004.68 1005.16 1005.51 1005.98 1006.17 1006.63 1006.83 1006.91 1006.96 1006.84 1006.61 1005.74 1005.78 1006.41 1006.61 1006.88 1006.96 1007.28 1007.40 1007.63 1007.91 1008.12 1008.22 1008.32
1015.30 1014.56 1013.67 1012.64 1011.57 1010.85 1010.54 1010.52 1010.96 1011.05 1009.71 1007.55 1006.77 1006.56 1005.75 1005.18 1005.03 1003.98 1003.69 1004.22 1004.64 1005.26 1005.62 1006.15 1005.85 1005.85 1005.96 1006.22 1006.60 1006.74 1006.75 1006.55 1005.92 1006.20 1006.89 1007.14 1006.76 1007.00 1006.96 1006.90 1007.06 1007.15 1007.39 1007.41 1007.56
1015.18 1014.53 1013.76 1012.61 1011.37 1011.12 1011.43 1010.62 1010.42 1010.51 1010.15 1006.96 1006.07 1005.56 1005.03 1005.13 1005.00 1004.12 1003.91 1004.11 1004.78 1005.59 1005.93 1006.20 1005.62 1005.47 1005.74 1005.94 1006.07 1006.34 1006.63 1006.54 1006.46 1006.91 1007.32 1007.58 1006.87 1006.56 1006.53 1006.35 1006.51 1006.35 1006.25 1006.82 1007.05
1015.03 1014.45 1013.96 1012.74 1011.55 1012.01 1011.05 1010.35 1010.17 1010.21 1009.62 1006.90 1005.48 1004.56 1004.60 1004.52 1004.30 1003.50 1003.48 1003.80 1004.79 1005.37 1006.15 1006.01 1005.29 1005.17 1005.36 1005.48 1005.73 1005.96 1006.10 1006.17 1007.09 1008.08 1008.85 1008.96 1008.51 1007.04 1006.77 1006.55 1006.41 1006.16 1006.22 1006.26 1006.45
1014.74 1014.32 1014.10 1013.72 1013.31 1012.35 1010.48 1009.89 1009.65 1009.72 1008.75 1005.78 1004.78 1003.95 1004.27 1004.47 1003.90 1003.38 1003.33 1003.50 1004.59 1005.28 1005.93 1005.59 1005.19 1004.94 1004.93 1004.90 1005.20 1005.93 1006.03 1006.88 1008.16 1009.40 1009.88 1009.91 1009.89 1006.76 1006.66 1006.54 1005.89 1005.56 1005.50 1005.68 1005.91
1014.38 1014.01 1013.87 1013.70 1013.47 1011.10 1010.33 1009.87 1009.61 1010.00 1007.98 1005.64 1004.68 1004.43 1004.65 1004.25 1003.87 1003.55 1003.53 1003.70 1004.40 1005.23 1005.62 1005.47 1004.94 1004.58 1004.24 1004.39 1004.88 1005.52 1007.00 1008.26 1009.53 1010.60 1011.09 1010.31 1010.19 1006.92 1005.81 1004.82 1004.76 1004.98 1005.04 1005.27 1005.62
1013.90 1013.41 1013.72 1013.31 1011.79 1010.62 1010.32 1010.16 1010.66 1009.77 1007.84 1006.80 1005.88 1005.37 1004.85 1004.43 1004.05 1003.86 1004.05 1004.44 1005.10 1005.91 1006.29 1005.70 1004.81 1004.17 1003.94 1004.50 1005.08 1006.10 1008.03 1009.73 1011.02 1011.80 1011.54 1010.48 1010.18 1006.26 1004.86 1004.28 1003.95 1004.08 1004.19 1004.27 1004.56
1013.25 1012.56 1012.16 1011.74 1011.08 1010.73 1010.67 1010.89 1010.95 1009.74 1008.49 1007.24 1006.47 1005.59 1005.22 1004.41 1004.18 1004.16 1004.42 1005.11 1005.31 1005.78 1006.62 1006.16 1005.14 1004.06 1003.64 1003.91 1004.55 1006.11 1007.38 1009.08 1010.59 1011.83 1011.15 1010.40 1008.79 1004.97 1003.84 1003.47 1003.25 1003.51 1003.60 1003.92 1004.22
1012.69 1012.12 1012.04 1010.93 1010.94 1011.38 1011.41 1011.86 1011.00 1010.01 1008.91 1008.03 1006.82 1006.32 1005.66 1004.74 1004.48 1004.39 1004.55 1004.95 1004.86 1005.24 1005.96 1006.05 1005.23 1003.91 1003.30 1003.14 1003.77 1005.88 1007.02 1007.67 1009.87 1011.28 1010.93 1009.40 1007.57 1004.73 1003.51 1003.37 1003.42 1003.29 1003.53 1003.72 1003.85
1013.41 1012.85 1011.57 1010.78 1010.81 1011.06 1011.68 1011.99 1011.17 1010.05 1009.00 1008.27 1007.81 1006.94 1006.55 1005.41 1004.93 1004.60 1004.59 1004.27 1004.39 1004.40 1004.24 1005.34 1005.43 1004.14 1003.43 1003.29 1003.93 1004.68 1005.86 1007.84 1009.38 1010.75 1010.81 1009.18 1007.75 1005.40 1003.90 1003.52 1003.47 1003.45 1003.32 1003.47 1003.69
1013.48 1012.81 1011.66 1011.04 1011.12 1011.48 1012.31 1012.00 1010.83 1009.56 1009.01 1008.38 1007.90 1007.43 1006.77 1005.87 1004.93 1004.59 1004.27 1003.86 1003.72 1004.15 1004.63 1005.37 1005.73 1005.04 1004.07 1003.91 1004.18 1005.03 1005.83 1007.43 1008.72 1009.45 1009.76 1008.95 1007.01 1003.89 1003.19 1003.33 1003.17 1003.26 1003.14 1003.18 1003.41
1014.13 1013.42 1011.79 1011.37 1011.93 1012.93 1012.64 1011.73 1010.62 1009.33 1008.45 1008.11 1007.81 1007.49 1006.87 1005.87 1005.14 1004.62 1004.21 1003.69 1003.40 1003.74 1004.72 1005.15 1005.66 1005.75 1004.90 1004.06 1004.04 1004.29 1005.13 1006.53 1008.35 1009.52 1009.49 1008.30 1005.52 1003.00 1002.50 1002.58 1002.93 1002.90 1002.84 1002.82 1003.04
1015.39 1014.35 1011.92 1011.66 1012.73 1013.18 1012.49 1011.65 1010.59 1009.56 1008.72 1008.15 1007.65 1006.98 1006.45 1006.02 1005.50 1004.78 1004.22 1003.28 1003.44 1003.77 1004.22 1005.00 1005.75 1005.96 1005.46 1004.80 1004.28 1004.45 1005.03 1006.32 1007.08 1008.05 1008.85 1008.12 1005.37 1003.11 1002.86 1002.54 1001.87 1002.05 1002.60 1002.51 1002.43
1015.73 1015.01 1013.51 1012.97 1013.35 1013.29 1012.93 1011.94 1010.79 1009.35 1008.80 1008.22 1007.73 1006.99 1006.70 1006.21 1005.62 1005.19 1004.59 1003.69 1003.59 1003.79 1004.15 1004.47 1005.77 1005.91 1005.52 1004.84 1004.52 1004.92 1005.24 1005.85 1006.66 1007.96 1008.53 1007.45 1005.67 1003.97 1003.55 1003.57 1003.11 1002.19 1001.35 1001.68 1002.03
1016.06 1016.24 1015.62 1014.81 1014.28 1013.92 1013.35 1012.56 1011.52 1010.50 1009.33 1008.64 1007.85 1007.62 1007.06 1006.53 1006.22 1005.86 1005.18 1004.54 1003.93 1004.05 1004.58 1005.20 1006.33 1006.17 1005.51 1005.18 1005.17 1005.53 1005.76 1005.98 1006.54 1007.09 1007.48 1006.85 1006.43 1004.87 1005.00 1004.47 1003.82 1003.21 1002.59 1001.92 1001.26
1016.72 1016.67 1015.92 1015.49 1014.94 1014.40 1013.88 1013.22 1012.28 1011.40 1010.70 1009.46 1009.00 1008.00 1007.19 1007.29 1007.35 1006.62 1005.91 1005.32 1005.04 1004.79 1005.26 1005.97 1006.60 1006.71 1006.55 1005.96 1005.84 1006.25 1006.34 1006.49 1006.88 1007.28 1007.28 1006.97 1006.36 1005.23 1004.90 1004.38 1003.58 1002.78 1002.58 1002.76 1002.13
1017.08 1016.82 1016.57 1016.03 1015.41 1014.81 1014.42 1013.72 1012.85 1012.22 1010.79 1010.22 1009.80 1008.84 1008.02 1007.74 1007.49 1006.79 1006.35 1005.89 1005.86 1006.10 1006.40 1006.76 1007.26 1007.70 1007.48 1006.98 1006.71 1006.87 1006.78 1006.72 1007.28 1007.48 1007.71 1007.28 1006.20 1005.51 1004.63 1004.28 1003.31 1002.48 1001.96 1001.85 1001.85
Thickness
5765 5770 5775 5779 5784 5789 5793 5797 5802 5806 5809 5812 5816 5818 5821 5823 5830 5835 5834 5857 5857 5852 5846 5834 5829 5826 5824 5813 5813 5807 5773 5764 5777 5778 5789 5809 5797 5803 5808 5792 5794 5797 5791 5787 5781
5763 5768 5773 5777 5782 5787 5792 5797 5802 5806 5809 5812 5816 5819 5820 5822 5825 5830 5865 5867 5859 5855 5841 5828 5817 5819 5806 5804 5805 5794 5773 5784 5805 5807 5797 5808 5806 5800 5792 5786 5785 5781 5786 5786 5779
5761 5766 5771 5776 5781 5786 5791 5796 5802 5806 5809 5812 5815 5819 5822 5821 5824 5845 5869 5866 5860 5856 5847 5836 5828 5817 5800 5806 5803 5797 5785 5803 5812 5818 5818 5808 5804 5812 5794 5781 5790 5780 5779 5779 5774
5759 5764 5769 5774 5779 5785 5791 5796 5802 5806 5810 5813 5816 5820 5825 5824 5812 5855 5865 5863 5857 5854 5843 5831 5821 5809 5799 5799 5812 5793 5806 5811 5818 5823 5818 5806 5810 5802 5802 5803 5809 5798 5790 5783 5774
5757 5762 5768 5773 5779 5785 5791 5797 5802 5807 5812 5815 5816 5819 5827 5820 5828 5859 5860 5856 5853 5848 5837 5827 5816 5813 5802 5813 5816 5804 5814 5820 5824 5824 5819 5815 5802 5800 5800 5811 5811 5801 5792 5781 5778
5755 5760 5766 5773 5779 5785 5792 5799 5804 5808 5813 5816 5815 5816 5820 5807 5855 5855 5855 5849 5846 5840 5835 5833 5828 5827 5815 5817 5815 5819 5815 5815 5822 5822 5820 5807 5803 5808 5807 5813 5804 5797 5789 5786 5781
5753 5759 5765 5772 5778 5785 5793 5801 5807 5811 5815 5817 5815 5816 5814 5820 5852 5850 5848 5844 5848 5844 5833 5838 5838 5820 5825 5814 5832 5821 5806 5816 5818 5821 5809 5818 5796 5791 5807 5808 5799 5797 5792 5790 5787
5750 5757 5765 5772 5780 5788 5796 5803 5810 5815 5818 5817 5814 5814 5810 5852 5852 5846 5844 5842 5848 5847 5843 5848 5841 5828 5826 5830 5818 5804 5808 5787 5815 5818 5817 5817 5782 5802 5810 5806 5792 5793 5794 5790 5793
5747 5755 5763 5772 5780 5791 5800 5807 5811 5815 5817 5814 5811 5811 5810 5852 5844 5857 5854 5842 5843 5842 5842 5847 5838 5822 5823 5800 5780 5785 5775 5789 5801 5819 5817 5813 5794 5811 5815 5809 5797 5792 5795 5794 5791
5743 5750 5760 5770 5778 5790 5801 5807 5808 5810 5809 5809 5812 5802 5829 5829 5845 5853 5856 5850 5840 5841 5834 5832 5816 5800 5790 5784 5755 5774 5781 5792 5790 5811 5812 5801 5800 5808 5810 5810 5804 5800 5796 5797 5794
5738 5746 5755 5765 5775 5786 5799 5803 5793 5794 5802 5804 5810 5812 5822 5840 5850 5848 5853 5843 5840 5829 5807 5815 5799 5786 5795 5798 5797 5796 5793 5788 5808 5815 5801 5797 5797 5802 5804 5805 5804 5804 5804 5803 5805
5733 5741 5751 5762 5772 5781 5786 5783 5780 5782 5776 5809 5814 5815 5827 5834 5820 5839 5853 5828 5820 5799 5809 5797 5785 5806 5812 5808 5799 5794 5791 5791 5806 5812 5801 5793 5795 5801 5806 5809 5810 5809 5811 5813 5813
5728 5735 5744 5756 5768 5773 5769 5778 5783 5784 5770 5800 5814 5815 5823 5827 5813 5822 5837 5828 5812 5797 5798 5784 5802 5815 5809 5802 5799 5794 5788 5791 5798 5803 5801 5795 5791 5800 5809 5815 5816 5818 5826 5820 5818
5725 5731 5737 5750 5761 5757 5767 5777 5780 5781 5748 5780 5803 5817 5821 5822 5812 5836 5841 5830 5813 5792 5792 5794 5812 5810 5804 5801 5800 5786 5808 5812 5802 5783 5761 5782 5752 5788 5797 5800 5805 5812 5817 5821 5822
5721 5726 5730 5736 5741 5748 5768 5775 5779 5776 5725 5796 5799 5827 5817 5808 5818 5824 5840 5827 5799 5798 5796 5791 5802 5804 5800 5806 5809 5798 5808 5803 5789 5768 5765 5766 5749 5783 5794 5788 5802 5813 5820 5822 5826
5720 5724 5727 5729 5733 5754 5762 5768 5770 5728 5721 5771 5793 5791 5792 5801 5807 5817 5820 5826 5817 5800 5801 5796 5815 5815 5811 5817 5816 5817 5795 5780 5767 5753 5736 5761 5751 5778 5799 5813 5820 5821 5824 5824 5824
5720 5724 5723 5727 5740 5752 5756 5754 5715 5704 5757 5754 5764 5774 5779 5784 5794 5800 5795 5792 5776 5764 5769 5787 5798 5815 5821 5804 5809 5794 5767 5727 5732 5727 5726 5753 5745 5787 5817 5822 5828 5828 5828 5830 5832
5720 5727 5731 5735 5741 5745 5745 5726 5706 5727 5735 5758 5764 5764 5767 5781 5784 5787 5778 5769 5786 5776 5750 5755 5758 5801 5817 5807 5797 5783 5776 5736 5723 5718 5740 5750 5752 5802 5829 5836 5837 5838 5838 5836 5834
5722 5727 5728 5737 5738 5735 5726 5694 5703 5716 5737 5738 5750 5744 5750 5770 5778 5777 5772 5765 5780 5779 5760 5748 5763 5806 5817 5821 5815 5789 5769 5786 5738 5733 5739 5755 5778 5817 5829 5828 5835 5840 5836 5836 5838
5713 5716 5727 5734 5734 5730 5708 5693 5706 5721 5734 5736 5729 5744 5735 5749 5760 5764 5764 5781 5781 5785 5796 5776 5759 5797 5809 5817 5812 5803 5799 5763 5745 5732 5739 5749 5759 5776 5818 5827 5828 5832 5837 5840 5841
5711 5718 5724 5728 5727 5715 5691 5691 5709 5725 5729 5728 5727 5729 5735 5745 5757 5757 5766 5781 5791 5786 5785 5773 5765 5773 5799 5795 5789 5783 5779 5766 5757 5747 5732 5737 5762 5814 5825 5829 5829 5834 5840 5843 5843
5698 5706 5719 5721 5703 5682 5690 5700 5716 5720 5732 5729 5730 5726 5730 5747 5750 5754 5761 5772 5793 5788 5768 5775 5758 5748 5769 5798 5803 5802 5795 5771 5748 5754 5738 5744 5767 5839 5840 5840 5837 5838 5844 5846 5849
5687 5686 5713 5714 5684 5682 5692 5701 5710 5712 5720 5725 5725 5730 5734 5742 5741 5751 5762 5788 5791 5786 5777 5775 5752 5736 5750 5771 5793 5792 5791 5773 5759 5752 5740 5742 5766 5833 5835 5842 5851 5849 5845 5847 5851
5685 5689 5694 5694 5685 5688 5686 5691 5695 5715 5714 5723 5721 5731 5731 5732 5743 5746 5756 5777 5783 5786 5783 5780 5743 5749 5737 5763 5779 5777 5788 5782 5771 5748 5745 5752 5789 5815 5823 5822 5835 5845 5858 5857 5854
5676 5674 5674 5672 5677 5676 5678 5682 5687 5687 5704 5711 5715 5719 5716 5723 5732 5738 5751 5761 5777 5779 5776 5768 5747 5759 5768 5775 5768 5768 5771 5780 5780 5771 5769 5782 5780 5805 5803 5809 5820 5832 5839 5847 5858
5669 5666 5667 5665 5665 5670 5665 5669 5677 5681 5684 5693 5694 5709 5717 5714 5718 5731 5743 5751 5758 5770 5767 5759 5749 5753 5755 5763 5763 5755 5761 5764 5764 5764 5765 5772 5776 5805 5810 5814 5822 5831 5836 5834 5842
5659 5659 5659 5660 5660 5663 5660 5663 5672 5674 5686 5691 5690 5696 5703 5712 5721 5731 5742 5746 5751 5754 5752 5749 5740 5732 5737 5745 5745 5742 5755 5757 5758 5761 5757 5763 5786 5797 5806 5811 5820 5832 5839 5839 5841